Weather History for Jacksonville Craig, FL

Change the Weather History Date:

Tuesday, February 25, 2014

  Actual Average Record
Temperature  
Mean Temperature 69 °F -  
Max Temperature 79 °F 67 °F 84 °F (2001)
Min Temperature 59 °F 49 °F 37 °F (1999)
Cooling Degree Days 4    
Growing Degree Days 19 (Base 50)    
Moisture  
Dew Point 54 °F    
Average Humidity 67    
Maximum Humidity 90    
Minimum Humidity 32    
Precipitation  
Precipitation 0.00 in - - ()
Sea Level Pressure  
Sea Level Pressure 30.01 in    
Wind  
Wind Speed 2 mph (NW)    
Max Wind Speed 8 mph    
Max Gust Speed -    
Visibility 9 miles    
Events      
Averages and records for this station are not official NWS values.
T = Trace of Precipitation, MM = Missing Value Source: NWS Daily Summary

Daily Weather History Graph

Daily Weather History Graph

Search for Another Location

Airport:

Trip Planner

Search our weather history database for the weather conditions in past years. The results will help you decide how hot, cold, wet, or windy it might be!

Date:

Astronomy

Feb. 25, 2014 Rise Set
Actual Time 6:56 AM EST 6:22 PM EST
Civil Twilight 6:32 AM EST 6:46 PM EST
Nautical Twilight 6:04 AM EST 7:14 PM EST
Astronomical Twilight 5:36 AM EST 7:42 PM EST
Moon 3:38 AM EST (2/25) 2:37 PM EST (2/25)
Length of Visible Light 12h 13m
Length of Day
11h 25m
Waning Crescent, 18% of the Moon is Illuminated
Feb 25
Waning Crescent
Mar 1
New
Mar 8
First Quarter
Mar 16
Full
Mar 23
Last Quarter

Hourly Weather History & Observations

Time (EST) Temp. Dew Point Humidity Pressure Visibility Wind Dir Wind Speed Gust Speed Precip Events Conditions
12:53 AM 60.1 °F 55.9 °F 86% 30.07 in 9.0 mi Calm Calm - N/A   Overcast
1:53 AM 60.1 °F 55.9 °F 86% 30.04 in 7.0 mi Calm Calm - N/A   Mostly Cloudy
2:53 AM 59.0 °F 55.9 °F 90% 30.04 in 7.0 mi Calm Calm - N/A   Clear
3:53 AM 60.1 °F 55.9 °F 86% 30.02 in 7.0 mi Calm Calm - N/A   Clear
4:53 AM 59.0 °F 55.9 °F 90% 30.03 in 7.0 mi Calm Calm - N/A   Mostly Cloudy
5:53 AM 60.1 °F 57.0 °F 90% 30.04 in 9.0 mi Calm Calm - N/A   Overcast
6:53 AM 61.0 °F 57.0 °F 87% 30.05 in 7.0 mi Calm Calm - N/A   Mostly Cloudy
7:53 AM 61.0 °F 57.0 °F 87% 30.06 in 7.0 mi NW 3.5 mph - N/A   Mostly Cloudy
8:53 AM 64.9 °F 59.0 °F 81% 30.08 in 9.0 mi NNW 4.6 mph - N/A   Mostly Cloudy
9:53 AM 70.0 °F 55.9 °F 61% 30.07 in 10.0 mi WSW 3.5 mph - N/A   Clear
10:53 AM 73.9 °F 48.0 °F 40% 30.05 in 10.0 mi Variable 3.5 mph - N/A   Clear
11:53 AM 75.9 °F 46.0 °F 35% 30.05 in 10.0 mi West 6.9 mph - N/A   Clear
12:53 PM 77.0 °F 45.0 °F 32% 30.01 in 10.0 mi SW 8.1 mph - N/A   Clear
1:53 PM 79.0 °F 48.0 °F 34% 29.99 in 10.0 mi North 6.9 mph - N/A   Partly Cloudy
2:53 PM 78.1 °F 53.1 °F 42% 29.95 in 10.0 mi NNW 5.8 mph - N/A   Scattered Clouds
3:53 PM 79.0 °F 52.0 °F 39% 29.94 in 10.0 mi NNW 5.8 mph - N/A   Scattered Clouds
4:53 PM 75.9 °F 52.0 °F 43% 29.94 in 10.0 mi East 8.1 mph - N/A   Partly Cloudy
5:53 PM 73.0 °F 52.0 °F 48% 29.94 in 10.0 mi SE 4.6 mph - N/A   Clear
6:53 PM 69.1 °F 54.0 °F 58% 29.96 in 10.0 mi Calm Calm - N/A   Clear
7:53 PM 64.9 °F 55.0 °F 70% 29.97 in 10.0 mi Calm Calm - N/A   Clear
8:53 PM 63.0 °F 55.9 °F 78% 29.97 in 10.0 mi Calm Calm - N/A   Clear
9:53 PM 62.1 °F 55.9 °F 80% 29.97 in 10.0 mi Calm Calm - N/A   Clear
10:53 PM 62.1 °F 55.9 °F 80% 29.96 in 10.0 mi Calm Calm - N/A   Clear
11:53 PM 62.1 °F 55.9 °F 80% 29.95 in 10.0 mi Calm Calm - N/A   Clear